Location: Newark
(54.0500°N, 12.8333°E)
Time: 07:58:40
(UTC+00:00)

Tiros 1 - All Passes

Search period start: 21 January 2020 00:00
Search period end: 31 January 2020 00:00
Orbit: 630 x 664 km, 48.4° (Epoch: 20 January)

Date Brightness Start Highest point End Pass type
(mag) Time Alt. Az. Time Alt. Az. Time Alt. Az.
21 Jan - 12:43:47 10° SSE 12:45:37 12° SE 12:47:28 10° ESE daylight
21 Jan - 14:22:38 10° SW 14:26:46 30° SSE 14:30:57 10° E daylight
21 Jan - 16:03:53 10° WSW 16:08:24 43° S 16:12:57 10° ESE visible
21 Jan - 17:45:49 10° W 17:50:03 32° SSW 17:54:18 10° SE visible
21 Jan - 19:29:01 10° WSW 19:31:15 13° SW 19:33:30 10° S visible
22 Jan - 13:07:40 10° SSW 13:11:07 20° SSE 13:14:35 10° ESE daylight
22 Jan - 14:48:08 10° WSW 14:52:32 39° S 14:56:58 10° E daylight
22 Jan - 16:29:46 10° WSW 16:34:13 40° S 16:38:43 10° ESE visible
22 Jan - 18:12:01 10° W 18:15:43 22° SSW 18:19:25 10° SSE visible
23 Jan - 11:54:11 10° SSE 11:55:39 11° SE 11:57:05 10° ESE daylight
23 Jan - 13:32:40 10° SW 13:36:45 29° SSE 13:40:52 10° E daylight
23 Jan - 15:13:52 10° WSW 15:18:22 43° S 15:22:54 10° ESE daylight
23 Jan - 16:55:46 10° W 17:00:01 33° SSW 17:04:18 10° SE visible
23 Jan - 18:38:48 10° WSW 18:41:15 14° SW 18:43:42 10° S visible
24 Jan - 12:17:47 10° SSW 12:21:07 19° SSE 12:24:28 10° ESE daylight
24 Jan - 13:58:08 10° SW 14:02:30 38° SSE 14:06:55 10° E daylight
24 Jan - 15:39:44 10° WSW 15:44:12 41° S 15:48:41 10° ESE daylight
24 Jan - 17:21:56 10° W 17:25:43 23° SSW 17:29:28 10° SSE visible
25 Jan - 11:04:48 10° SSE 11:05:40 10° SE 11:06:31 10° SE daylight
25 Jan - 12:42:43 10° SW 12:46:44 28° SSE 12:50:47 10° E daylight
25 Jan - 14:23:51 10° WSW 14:28:19 43° S 14:32:50 10° ESE daylight
25 Jan - 16:05:43 10° W 16:09:59 33° SSW 16:14:17 10° SE visible
25 Jan - 17:48:37 10° WSW 17:51:15 15° SW 17:53:53 10° S visible
26 Jan - 11:27:56 10° S 11:31:06 18° SSE 11:34:20 10° ESE daylight
26 Jan - 13:08:08 10° SW 13:12:28 37° SSE 13:16:51 10° E daylight
26 Jan - 14:49:43 10° WSW 14:54:10 41° S 14:58:39 10° ESE daylight
26 Jan - 16:31:52 10° W 16:35:42 24° SSW 16:39:32 10° SSE visible
27 Jan - 11:52:46 10° SW 11:56:43 27° SSE 12:00:42 10° E daylight
27 Jan - 13:33:50 10° WSW 13:38:17 42° S 13:42:47 10° ESE daylight
27 Jan - 15:15:41 10° W 15:19:58 34° SSW 15:24:17 10° SE daylight
27 Jan - 16:58:28 10° WSW 17:01:15 16° SW 17:04:03 10° S visible
28 Jan - 10:38:04 10° S 10:41:07 17° SSE 10:44:11 10° ESE daylight
28 Jan - 12:18:09 10° SW 12:22:27 36° SSE 12:26:47 10° E daylight
28 Jan - 13:59:41 10° WSW 14:04:08 41° S 14:08:37 10° ESE daylight
28 Jan - 15:41:47 10° W 15:45:40 25° SSW 15:49:34 10° SSE daylight
29 Jan - 11:02:49 10° SSW 11:06:42 26° SSE 11:10:37 10° E daylight
29 Jan - 12:43:50 10° WSW 12:48:15 42° S 12:52:44 10° ESE daylight
29 Jan - 14:25:38 10° W 14:29:56 35° SSW 14:34:16 10° SE daylight
29 Jan - 16:08:19 10° WSW 16:11:15 16° SW 16:14:12 10° S daylight
30 Jan - 09:48:14 10° S 09:51:07 16° SE 09:54:01 10° ESE daylight
30 Jan - 11:28:10 10° SW 11:32:25 35° SSE 11:36:43 10° E daylight
30 Jan - 13:09:40 10° WSW 13:14:06 42° S 13:18:34 10° ESE daylight
30 Jan - 14:51:45 10° W 14:55:39 26° SSW 14:59:36 10° SSE daylight
